Location: Burbank
(38.7788°N, 114.0429°W)
Time: 23:07:10
(UTC+00:00)

S-56A Canister/Altair - Pass Details

Date: 13 May 2026
Orbit: 633 x 2484 km, 38.9° (Epoch: 1 June)

Event Time Altitude Azimuth Distance (km) Brightness Sun altitude
Rises 07:31:22 0° 276° (W) 2,983 - -32.8°
Reaches altitude 10° 07:33:28 10° 276° (W) 2,149 - -32.8°
Maximum altitude 07:38:19 86° 189° (S) 832 - -32.8°
Drops below altitude 10° 07:45:06 10° 100° (E) 2,952 - -32.7°
Exits shadow 07:46:01 - 100° (E) 3,304 10.7 -32.7°
Sets 07:48:25 0° 100° (E) 4,203 11.3 -32.7°
